User: anonymous   Login
Location: Champignolles
(47.0543°N, 4.5663°E)
Time: 23:39:58
(UTC+00:00)
Language:

H-2A R/B - Orbit

View from above orbital plane
View from above orbital plane
View from above satellite
View from above satellite

Ground track
Ground track

The orbit data is extracted from the following two-line orbital elements,

1 38341U 12025E   21061.80772004  .00000321  00000-0  44906-4 0  9990
2 38341  98.5224 240.0100 0056468 121.5240 239.1506 14.84178811475771
Epoch (UTC): 02 March 2021 19:23:07
Eccentricity: 0.0056468
inclination: 98.5224°
perigee height: 576 km
apogee height: 655 km
right ascension of ascending node: 240.0100°
argument of perigee: 121.5240°
revolutions per day: 14.84178811
mean anomaly at epoch: 239.1506°
orbit number at epoch: 47577

The dashed part of the orbit path shows where the satellite is in the earth's shadow,  

DLR